DW7220 Weather Reports


Display with metric or nautical units.
time (UTC)temp
F
wind
direction
speed
MPH
gust
MPH
rain 1hr
in
rain 24hr
in
rain mn
in
humidity
%
barometer
mb
20260507223046 82 100 10.0 16.0 0.00 0.00 0.00 80 1012.6
20260507221606 82 91 10.0 17.0 0.00 0.00 0.00 79 1012.5
20260507220008 83 110 9.0 14.0 0.00 0.00 0.00 78 1012.7
20260507214545 82 99 8.0 14.0 0.00 0.00 0.00 78 1012.6
20260507213058 83 102 6.0 16.0 0.00 0.00 0.00 78 1012.6
20260507211511 83 122 4.0 15.0 0.00 0.00 0.00 78 1012.7
20260507210039 82 86 6.0 14.0 0.00 0.00 0.00 79 1012.8
20260507204539 83 91 7.0 16.0 0.00 0.00 0.00 77 1012.9
20260507203059 83 105 7.0 13.0 0.00 0.00 0.00 77 1013.1
20260507201514 84 73 5.0 11.0 0.00 0.00 0.00 76 1013.0
20260507200034 83 84 8.0 13.0 0.00 0.00 0.00 76 1013.0
20260507194601 84 84 9.0 15.0 0.00 0.00 0.00 74 1013.3
20260507193002 85 58 8.0 17.0 0.00 0.00 0.00 72 1013.5
20260507191511 89 5 7.0 14.0 0.00 0.00 0.00 61 1013.6
20260507190035 90 252 4.0 12.0 0.00 0.00 0.00 48 1013.7
20260507184601 87 191 1.0 9.0 0.00 0.00 0.00 67 1013.9
20260507183035 87 122 4.0 8.0 0.00 0.00 0.00 65 1014.3
20260507181543 87 128 7.0 10.0 0.00 0.00 0.00 66 1014.5
20260507180100 86 77 4.0 12.0 0.00 0.00 0.00 68 1014.6
20260507174508 85 94 6.0 10.0 0.00 0.00 0.00 69 1014.8
20260507173030 86 48 3.0 8.0 0.00 0.00 0.00 68 1014.9
20260507171604 89 79 2.0 8.0 0.00 0.00 0.00 58 1014.8
20260507170058 87 248 3.0 11.0 0.00 0.00 0.00 60 1014.8
20260507164502 87 257 4.0 8.0 0.00 0.00 0.00 63 1015.0
20260507163012 88 233 4.0 9.0 0.00 0.00 0.00 61 1015.3
20260507161535 86 223 6.0 12.0 0.00 0.00 0.00 63 1015.4
20260507160040 86 215 3.0 8.0 0.00 0.00 0.00 64 1015.5
20260507154546 85 238 4.0 8.0 0.00 0.00 0.00 66 1015.6
20260507153004 86 105 5.0 9.0 0.00 0.00 0.00 64 1015.9
20260507151529 85 249 3.0 0.0 0.00 0.00 0.00 66 1016.0
20260507150043 83 258 2.0 9.0 0.00 0.00 0.00 69 1016.0
20260507144604 83 263 2.0 11.0 0.00 0.00 0.00 67 1016.1
20260507143011 83 240 1.0 6.0 0.00 0.00 0.00 69 1016.2
20260507141522 82 243 1.0 8.0 0.00 0.00 0.00 69 1016.2
20260507140043 82 216 2.0 7.0 0.00 0.00 0.00 68 1016.3
20260507134609 81 231 3.0 10.0 0.00 0.00 0.00 70 1016.4
20260507133014 80 250 3.0 7.0 0.00 0.00 0.00 70 1016.2
20260507131538 80 209 3.0 6.0 0.00 0.00 0.00 75 1016.3
20260507130111 78 205 2.0 5.0 0.00 0.00 0.00 77 1016.2
20260507124504 77 167 1.0 5.0 0.00 0.00 0.00 80 1016.3
20260507123019 77 200 2.0 6.0 0.00 0.00 0.00 81 1016.2
20260507121541 75 149 2.0 5.0 0.00 0.00 0.00 85 1016.2
20260507114505 71 225 0.0 1.0 0.00 0.00 0.00 93 1016.2
20260507113023 69 243 0.0 1.0 0.00 0.00 0.00 94 1016.0
20260507111545 68 243 0.0 2.0 0.00 0.00 0.00 95 1016.1
20260507110104 67 239 1.0 3.0 0.00 0.00 0.00 95 1016.0
20260507104514 67 237 0.0 0.0 0.00 0.00 0.00 95 1015.6
20260507103049 67 226 0.0 1.0 0.00 0.00 0.00 95 1015.3
20260507101503 67 248 0.0 1.0 0.00 0.00 0.00 94 1015.1
20260507100023 67 266 0.0 1.0 0.00 0.00 0.00 94 1015.0
20260507094536 67 266 0.0 0.0 0.00 0.00 0.00 94 1015.1
20260507093105 67 262 0.0 1.0 0.00 0.00 0.00 94 1014.8
20260507091523 68 232 0.0 1.0 0.00 0.00 0.00 93 1014.7
20260507090040 68 231 0.0 1.0 0.00 0.00 0.00 93 1014.5
20260507084601 68 231 0.0 1.0 0.00 0.00 0.00 93 1014.3
20260507083009 68 221 0.0 0.0 0.00 0.00 0.00 93 1014.3
20260507081528 68 221 0.0 1.0 0.00 0.00 0.00 93 1014.4
20260507080045 68 161 0.0 0.0 0.00 0.00 0.00 92 1014.3
20260507074616 69 161 0.0 0.0 0.00 0.00 0.00 92 1014.4
20260507073019 69 241 0.0 1.0 0.00 0.00 0.00 91 1014.5
20260507071535 69 241 0.0 0.0 0.00 0.00 0.00 91 1014.7
20260507070115 70 241 0.0 2.0 0.00 0.00 0.00 90 1014.9
20260507064506 70 245 1.0 3.0 0.00 0.00 0.00 89 1015.3
20260507063039 71 255 1.0 3.0 0.00 0.00 0.00 88 1015.2
20260507061547 72 261 1.0 3.0 0.00 0.00 0.00 86 1015.2
20260507060104 74 233 0.0 2.0 0.00 0.00 0.00 83 1015.4
20260507054511 75 180 0.0 3.0 0.00 0.00 0.00 80 1015.5
20260507053041 76 141 1.0 4.0 0.00 0.00 0.00 79 1015.9
20260507051604 76 127 5.0 11.0 0.00 0.00 0.00 78 1015.7
20260507050005 77 104 3.0 8.0 0.00 0.00 0.00 78 1015.8
20260507044520 77 120 6.0 10.0 0.00 0.00 0.00 78 1015.7
20260507043043 77 123 3.0 10.0 0.00 0.00 0.00 78 1015.9
20260507041603 77 127 5.0 10.0 0.00 0.00 0.00 79 1015.9
20260507040020 77 97 6.0 10.0 0.00 0.00 0.00 78 1016.0
20260507034537 77 99 4.0 9.0 0.00 0.00 0.00 78 1015.8
20260507033049 77 103 6.0 10.0 0.00 0.00 0.00 77 1015.8
20260507031628 77 93 3.0 9.0 0.00 0.00 0.00 78 1016.0
20260507030024 77 107 4.0 13.0 0.00 0.00 0.00 79 1015.9
20260507024545 77 88 4.0 10.0 0.00 0.00 0.00 79 1016.0
20260507023116 77 105 6.0 11.0 0.00 0.00 0.00 77 1015.9
20260507021512 77 140 5.0 11.0 0.00 0.00 0.00 76 1016.1
20260507020043 77 96 5.0 9.0 0.00 0.00 0.00 76 1016.1
20260507014608 78 94 6.0 9.0 0.00 0.00 0.00 76 1016.0
20260507013033 78 127 4.0 8.0 0.00 0.00 0.00 75 1016.0
20260507011522 78 116 3.0 8.0 0.00 0.00 0.00 74 1016.0
20260507010051 78 109 3.0 9.0 0.00 0.00 0.00 73 1015.9
20260507004603 78 110 4.0 8.0 0.00 0.00 0.00 72 1015.8
20260507003001 78 101 8.0 11.0 0.00 0.00 0.00 70 1015.7
20260507001532 79 81 3.0 8.0 0.00 0.00 0.00 70 1015.6
20260507000046 79 88 6.0 12.0 0.00 0.00 0.00 68 1015.6
20260506234616 79 91 5.0 12.0 0.00 0.00 0.00 65 1015.5
20260506233022 80 117 8.0 12.0 0.00 0.00 0.00 64 1015.6
20260506231545 80 84 7.0 12.0 0.00 0.00 0.00 63 1015.7
20260506230107 81 110 4.0 14.0 0.00 0.00 0.00 61 1015.7
20260506224519 81 102 4.0 14.0 0.00 0.00 0.00 62 1015.5